User: anonymous   Login
Location: Newark
(15.4608°S, 41.1635°W)
Time: 00:42:04
(UTC+00:00)
Language:

Explorer 11/Cluster Stage 4 - Orbit

View from above orbital plane
View from above orbital plane
View from above satellite
View from above satellite

Ground track
Ground track

The orbit data is extracted from the following two-line orbital elements,

1 00107U 61013A   21211.20338605  .00000527  00000-0  48043-4 0  9990
2 00107  28.7920  38.1175 0545511 229.5291 125.6481 14.09270289 23794
Epoch (UTC): 30 July 2021 04:52:52
Eccentricity: 0.0545511
inclination: 28.7920°
perigee height: 467 km
apogee height: 1257 km
right ascension of ascending node: 38.1175°
argument of perigee: 229.5291°
revolutions per day: 14.09270289
mean anomaly at epoch: 125.6481°
orbit number at epoch: 2379

The dashed part of the orbit path shows where the satellite is in the earth's shadow,  

DLR